Home > Weather > Wichita > Past weeks

Flag for USA Past Weather in Wichita, Kansas, USA — Yesterday and Last 2 Weeks

Now
81 °F

Broken clouds.


Feels Like: 86 °F
Forecast: 73 / 92 °F
Wind: 9 mph from South

Location: Wichita Mid-Continent Airport

Current Time: Jul 27, 2016 at 10:36:46 AM

Latest Report: Jul 27, 2016 at 9:53 AM


Visibility: 10 mi

Pressure: 29.92 "Hg

Humidity: 77%

Dew Point: 73 °F

Location of WichitaLocation

Past Weather in Wichita — Graph

°F

Wichita Temperature Yesterday

Maximum temperature yesterday: 91 °F (at 2:53 PM)
Minimum temperature yesterday: 74 °F (at 5:53 AM)
Average temperature yesterday: 82 °F

High & Low Weather Summary for the Past Weeks

 TemperatureHumidityPressure
High104 °F (Jul 22, 3:53 PM)93% (Jul 15, 12:53 AM)30.16 "Hg (Jul 15, 12:53 AM)
Low67 °F (Jul 15, 4:53 AM)24% (Jul 22, 5:53 PM)29.75 "Hg (Jul 23, 6:53 PM)
Average85 °F63%29.94 "Hg
* Reported Jul 12 8:53 AM — Jul 27 8:53 AM, Wichita, Weather by CustomWeather, © 2016

Note: Actual official high and low records may vary slightly from our data, if they occured in-between our weather recording intervals... More about our weather records

Advertising

Wichita Weather History for the Previous 24 Hours

Scroll right to see more
 ConditionsComfort  
Time TempWeatherWind HumidityBarometerVisibility
8:53 AM
Wed, Jul 27
80 °FBroken clouds.7 mph79%29.94 "Hg10 mi
7:53 AM76 °FBroken clouds.5 mph88%29.97 "Hg9 mi
6:53 AM75 °FPartly cloudy.5 mph90%29.97 "Hg10 mi
5:53 AM75 °FPassing clouds.7 mph90%29.94 "Hg10 mi
4:53 AM75 °FPassing clouds.3 mph90%29.94 "Hg10 mi
3:53 AM76 °FPassing clouds.5 mph85%29.93 "Hg10 mi
2:53 AM76 °FClear.5 mph85%29.92 "Hg10 mi
1:53 AM77 °FPassing clouds.No wind85%29.93 "Hg10 mi
12:53 AM77 °FPassing clouds.7 mph85%29.94 "Hg10 mi
11:53 PM
Tue, Jul 26
78 °FPassing clouds.7 mph82%29.95 "Hg10 mi
10:53 PM81 °FPassing clouds.9 mph74%29.93 "Hg10 mi
9:53 PM82 °FPassing clouds.8 mph72%29.93 "Hg10 mi
8:53 PM84 °FPassing clouds.12 mph65%29.93 "Hg10 mi
7:53 PM86 °FPassing clouds.17 mph61%29.91 "Hg10 mi
6:53 PM88 °FPassing clouds.8 mph55%29.90 "Hg10 mi
5:53 PM89 °FScattered clouds.13 mph53%29.90 "Hg10 mi
4:53 PM89 °FBroken clouds.10 mph53%29.90 "Hg10 mi
3:53 PM90 °FPartly sunny.3 mph52%29.92 "Hg10 mi
2:53 PM91 °FBroken clouds.6 mph52%29.95 "Hg10 mi
1:53 PM89 °FBroken clouds.10 mph55%29.96 "Hg10 mi
12:53 PM86 °FPartly sunny.12 mph61%29.99 "Hg10 mi
11:53 AM84 °FBroken clouds.8 mph65%30.00 "Hg10 mi
10:53 AM83 °FBroken clouds.12 mph72%30.00 "Hg10 mi
Weather by CustomWeather, © 2016

See weather overviewHow to use our weather pages